Fort Myers, FL

5:43 PM EST on February 08, 2016 (GMT -0500)
Southwest Florida International | | Change Station
CLOSE
Current Station
Airport
Location: Fort Myers Airport,
Elevation: 30 ft
Nearby Weather Stations

Elev 30 ft 26.54 °N, 81.76 °W | Updated 50 minutes ago

Clear
Clear
63 °F
Feels Like 63 °F
N
14
Wind Variable Wind from SW

Today
High -- | Low -- °F
--% Chance of Precip.
Yesterday
High -- | Low -- °F
Precip. -- in
Pressure 30.00 in
Visibility 10.0 miles
Clouds Clear
Dew Point 52 °F
Humidity 67%
Rainfall 0.00 in
Snow Depth Not available.
7:08 AM 6:14 PM
New Moon, 0% visible
METAR KRSW 082153Z AUTO 23012KT 10SM CLR 17/11 A3000 RMK AO2 SLP157 T01720111
Pressure 30.00 in
Visibility 10.0 miles
Clouds Clear
Dew Point 52 °F
Humidity 67%
Rainfall 0.00 in
Snow Depth Not available.
7:08 AM 6:14 PM
New Moon, 0% visible
METAR KRSW 082153Z AUTO 23012KT 10SM CLR 17/11 A3000 RMK AO2 SLP157 T01720111

10-Day Weather Forecast

Almanac

Astronomy

Feb. 08, 2016 Rise Set
Actual Time
Civil Twilight
Nautical Twilight
Astronomical Twilight
Moon
Length of Visible Light
Length of Day
Tomorrow will be .
, % of the Moon is Illuminated

Today's Extremes

State Highs State Lows

Community

WunderPhotos

Upload Photos

1,891,521 photos uploaded!

WunderBlog® & News

Nearby

Air Quality

  Air Quality AQ Index Pollutant
Not available.

Snow Depth

Station Depth Elevation

Earthquake Activity

City Distance Mag. Time & Date
Minimum magnitude displayed is 2.5.

Coastal Water Temperatures

Place Temperature

Stations

Nearby Weather Stations

Station Location Temp. Windchill Dew Point Humidity Wind Precip. Elev Updated Type
                   

Watches & Warnings

There are currently no watches in effect.